www.pogodaiklimat.ru

Погода и климат >> Архив погоды >> Мьянма >> Янгон


ПОГОДА у Янгоне

  • Прогноз погоды у Янгоне
  • Монитор погоды у Янгоне

АРХИВ ПОГОДЫ у Янгоне

Время (UTC), дата Ветер
(напр.,м/с)
 
Видим.   Явления Облачность Т
(С)
Тd
(С)
f
(%)
Тe
(С)
Тes
(С)
Комфортность P
(гПа)
Po
(гПа)
Тmin
(С)
Tmax
(С)
R
(мм)
R24
(мм)
S
(см)
03 12.03 ЮВ 2 7000 м мгла 3/3 600 м
[Sc]
+27.0 +21.1 70 +34 +42 очень
душно
1014.5 1012.8
06 12.03 СВ 2 7000 м 3/3 600 м
[Sc]
+35.5 +17.9 35 +39 +53 опасность
солнечного
удара
1012.8 1011.1
09 12.03 СЗ 1 8000 м 1/1 600 м
[Sc]
+35.5 +18.8 37 +40 +48 очень
душно
1009.7 1008.0
12 12.03 ЮЗ 1 6000 м 3/3 600 м
[Sc]
+31.0 +23.0 62 +41 +41 опасность
перегрева
1010.6 1008.9 +37.5
15 12.03 Ю 3 5000 м ясно +27.0 +22.6 77 +36 +36 очень
душно
1011.7 1010.0
18 12.03 ЮЗ 3 4000 м ясно +26.5 +21.3 73 +34 +34 очень
душно
1011.5 1009.8
00 13.03 ЮВ 1 6000 м дымка 4/4 600 м
[Sc]
+22.5 +20.9 91 +29 +30 очень
душно
1011.5 1009.7 +19.5
03 13.03 7000 м н/о +29.0 +23.0 70 +39 +44 очень
душно
1014.3 1012.6
06 13.03 ЮВ 2 8000 м ясно +35.5 +20.8 42 +42 +62 опасность
перегрева
1013.6 1011.9
09 13.03 СВ 2 8000 м 3/3 1000 м
[Cu Sc]
+36.5 +18.4 35 +41 +46 опасность
перегрева
1010.7 1009.0
12 13.03 СЗ 2 6000 м 1/1 1000 м
[Sc]
+32.0 +23.6 61 +43 +43 опасность
перегрева
1011.6 1009.9 +37.0
15 13.03 СЗ 2 5000 м ясно +28.0 +23.3 76 +38 +38 очень
душно
1013.6 1011.9
18 13.03 ЮЗ 3 4000 м ясно +26.5 +21.3 73 +34 +34 очень
душно
1011.5 1009.8
00 14.03 ЮВ 1 6000 м дымка 3/3 600 м
[Sc]
+24.0 +22.6 92 +31 +32 очень
душно
1012.9 1011.2 +20.5
03 14.03 ЮЗ 2 7000 м ясно +30.0 +22.3 63 +39 +51 опасность
солнечного
удара
1015.8 1014.1
06 14.03 ЮЗ 2 7000 м 3/3 600 м
[Sc]
+36.0 +22.4 46 +45 +59 опасность
перегрева
1013.9 1012.2
09 14.03 ЮВ 2 7000 м 3/3 600 м
[Sc]
+37.0 +20.7 39 +44 +49 опасность
перегрева
1010.9 1009.2
12 14.03 ЮЗ 2 6000 м 4/4 600 м
[Sc]
+31.0 +23.7 65 +42 +42 опасность
перегрева
1011.9 1010.2 +37.2
15 14.03 ЮЗ 2 5000 м ясно +27.5 +23.6 79 +37 +37 очень
душно
1014.1 1012.4
03 15.03 ЮВ 1 7000 м 3/3 600 м
[Sc]
+27.5 +23.0 76 +37 +47 очень
душно
1016.9 1015.2
06 15.03 ЮВ 1 7000 м 4/4 600 м
[Sc]
+34.5 +16.1 33 +37 +51 опасность
солнечного
удара
1014.6 1012.9
09 15.03 ЮЗ 1 7000 м 3/3 600 м
[Sc]
+36.5 +12.8 24 +36 +43 очень
жарко
1011.1 1009.4
12 15.03 ЮЗ 1 6000 м 4/4 600 м
[Sc]
+32.5 +17.8 42 +37 +37 очень
душно
1012.6 1010.9 +37.5
15 15.03 ЮЗ 1 5000 м 3/3 600 м
[Sc]
+27.5 +21.5 70 +35 +35 очень
душно
1013.7 1012.0
00 16.03 СВ 1 6000 м 8/8 300 м
[Cb calv]
+24.5 +22.2 87 +32 +32 очень
душно
1013.6 1011.9 +20.0
03 16.03 З 1 7000 м 4/4 600 м
[Sc]
+29.0 +23.0 70 +39 +47 очень
душно
1015.8 1014.1
06 16.03 ЮВ 1 8000 м ясно +35.5 +18.8 37 +40 +63 опасность
солнечного
удара
1014.4 1012.7
09 16.03 ЮВ 2 8000 м ясно +36.0 +17.7 34 +39 +47 очень
душно
1012.0 1010.3
12 16.03 З 1 6000 м 3/3 1000 м
[Sc]
+32.0 +22.6 58 +42 +42 опасность
перегрева
1012.7 1011.0 +37.2
15 16.03 ЮЗ 2 5000 м 3/3 1000 м
[Sc]
+28.0 +23.3 76 +38 +38 очень
душно
1014.5 1012.8
00 17.03 ЮВ 1 6000 м 3/3 1000 м
[Sc]
+23.5 +22.0 91 +30 +30 очень
душно
1013.6 1011.8 +20.5
03 17.03 Ю 1 7000 м ясно +28.5 +22.5 70 +37 +52 опасность
солнечного
удара
1016.2 1014.5
06 17.03 ЮЗ 1 7000 м 3/3 600 м
[Sc]
+36.0 +21.4 43 +44 +60 опасность
перегрева
1014.1 1012.4
12 17.03 СВ 1 6000 м 4/3 600 м
[Sc Ac trans]
+32.0 +23.6 61 +43 +43 опасность
перегрева
1010.6 1008.9 +37.2
15 17.03 ЮЗ 2 5000 м 3/3 600 м
[Sc]
+29.0 +24.8 78 +41 +41 опасность
перегрева
1012.5 1010.8
00 18.03 ЮВ 1 6000 м 6/4 600 м
[Sc Ac trans]
+24.5 +23.0 91 +32 +33 очень
душно
1011.7 1010.0 +21.7
03 18.03 СВ 1 7000 м мгла 4/4 600 м
[Sc]
+28.0 +23.3 76 +38 +47 очень
душно
1013.8 1012.1
06 18.03 ЮЗ 2 7000 м 3/3 600 м
[Sc]
+36.0 +23.5 49 +47 +61 опасность
перегрева
1011.5 1009.8
09 18.03 ЮЗ 2 7000 м 5/5 600 м
[Cu Sc]
+37.0 +22.7 44 +46 +50 опасность
перегрева
1009.6 1007.9
12 18.03 ЮЗ 2 6000 м 3/3 600 м
[Sc]
+33.0 +22.4 54 +42 +42 опасность
перегрева
1009.7 1008.0 +37.7
15 18.03 ЮЗ 2 5000 м 3/3 600 м
[Sc]
+28.5 +24.0 77 +40 +40 очень
душно
1012.3 1010.6
00 19.03 ЮВ 1 6000 м 4/4 600 м
[Sc]
+25.0 +23.3 90 +33 +34 очень
душно
1011.5 1009.8 +22.5

 

Местоположение метеостанции Янгон (Мьянма): широта 16.77 долгота 96.17 высота над уровнем моря 15 м.

В архиве по умолчанию представлена погода у Янгоне за последнюю неделю. Архивные данные за месяц целиком и за предыдущие месяцы, начиная с января 2011 года, Вы можете получить, выбрав интересующий диапазон дат из раскрывающегося списка и нажав кнопку "Ввод!".


*Определитесь, кто Вы:
робот инопланетянин человек

Внимание! Время в таблицах - всемирное. Для получения местного времени необходимо прибавить поправку, которая равна 6.5 ч.

Смотрите также архив погоды в соседних городах и на ближайших метеорологических станциях:

Погода в Мингаладоне (Мьянма) (14 км)
Погода в Хмавби (Мьянма) (41 км)
Погода в Маубине (Мьянма) (56 км)
Погода в Пегу (Мьянма) (71 км)
Погода в Пхьяпоуне (Мьянма) (77 км)
Погода в Хинтаде (Мьянма) (128 км)
Погода в Бассейне (Мьянма) (149 км)
Погода в Моламьяйне (Мьянма) (157 км)
Погода в Пхаане (Мьянма) (160 км)
Погода в Гва (Мьянма) (191 км)

Пояснения к столбцам:

Ветер - указаны скорость ветра в м/с - средняя за 10 мин, порывы в срок и между сроками (в фигурных скобках) и направление, откуда дует ветер: С - северный, СВ - северо-восточный, В - восточный, ЮВ - юго-восточный, Ю - южный, ЮЗ - юго-западный, З - западный, СЗ - северо-западный.
Видимость - горизонтальная дальность видимости в метрах или километрах. При видимости от 1 до 10 км при отсутствии осадков обычно наблюдается дымка, при ухудшении видимости до 1 км и менее - туман. В сухую погоду видимость может ухудшаться дымом, пылью или мглою.
Явления - указаны атмосферные явления, наблюдавшиеся в срок или в последний час перед сроком; фигурными скобками обозначены явления, наблюдавшиеся между сроками (за 1-3 часа до срока); квадратными скобками обозначены град или гололедные отложения с указанием их диаметра в мм.
Облачность - указаны через наклонную черту общая и нижняя облачность в баллах и высота нижней границы облаков в метрах; квадратными скобками обозначены формы облаков: Ci - перистые, Cs - перисто-слоистые, Cc - перисто-кучевые, Ac - высококучевые, As - высокослоистые, Sc - слоисто-кучевые, Ns - слоисто-дождевые, Cu - кучевые, Cb - кучево-дождевые. Подробнее классификацию облаков см. в Атласе облаков (PDF).
T - Температура воздуха - температура, измеренная на высоте 2 м над землей.
Td - Температура точки росы - температура, при понижении до которой содержащийся в воздухе водяной пар достигнет насыщения.
f - Относительная влажность воздуха - влажноcть воздуха, измеренная на высоте 2 м над землей.
Te - Эффективная температура - температура, которую ощущает одетый по сезону человек в тени. Характеристика душности погоды. При расчете учитывается влияние влажности воздуха и скорости ветра на теплоощущения человека.
Tes - Эффективная температура на солнце - температура, которую ощущает человек, с поправкой на солнечный нагрев. Характеристика знойности погоды. Зависит от высоты солнца над горизонтом, облачности и скорости ветра. Ночью, в пасмурную погоду, а также при ветре 12 м/с и более поправка равна нулю.
P - Атмосферное давление - приведенное к уровню моря атмосферное давление.
Po - Атмосферное давление - измеренное на уровне метеостанции атмосферное давление.
Tmin - Минимальная температура - минимум температуры воздуха на высоте 2 м над землей.
Tmax - Максимальная температура - максимум температуры воздуха на высоте 2 м над землей.
R - Количество осадков - Количество выпавших осадков за период времени, мм. При наведении курсора мыши на число - период времени, за который выпало указанное количество осадков.
R24 - Количество осадков - Количество выпавших осадков за 24 часа, мм.
S - Снежный покров - Высота снежного покрова, см. При наведении курсора мыши на число - состояние снежного покрова и степень покрытия местности в баллах.